Location: Gandikunta
(16.3784°N, 80.8378°E)
Time: 20:05:31
(UTC+00:00)

Milstar 3 - Pass Details

Date: 19 May 2025
Orbit: 1098 x 5147 km, 28.2° (Epoch: 22 June)

Event Time Altitude Azimuth Distance (km) Brightness Sun altitude
Rises 23:15:32 0° 291° (WNW) 4,882 5.7 -11.7°
Reaches altitude 10° 23:19:27 10° 300° (WNW) 3,499 5.1 -10.9°
Maximum altitude 23:26:34 35° 6° (N) 1,736 4.1 -9.3°
Drops below altitude 10° 23:32:37 10° 72° (ENE) 2,960 6.7 -8.0°
Sets 23:35:36 0° 82° (E) 4,028 7.6 -7.3°
